TimeEDT,TemperatureF,Dew PointF,Humidity,Sea Level PressureIn,VisibilityMPH,Wind Direction,Wind SpeedMPH,Gust SpeedMPH,PrecipitationIn,Events,Conditions,WindDirDegrees,DateUTC
12:53 AM,79.0,75.0,88,29.91,10.0,SSW,9.2,-,N/A,,Scattered Clouds,210,2013-09-02 04:53:00
1:23 AM,78.8,75.2,89,29.91,10.0,West,5.8,-,N/A,,Mostly Cloudy,280,2013-09-02 05:23:00
1:53 AM,79.0,75.0,88,29.90,10.0,SW,3.5,-,N/A,,Overcast,220,2013-09-02 05:53:00
2:34 AM,78.8,75.2,89,29.88,9.0,SSW,6.9,-,N/A,,Partly Cloudy,210,2013-09-02 06:34:00
2:53 AM,79.0,73.9,84,29.88,9.0,SSW,9.2,-,N/A,,Clear,200,2013-09-02 06:53:00
3:53 AM,79.0,73.9,84,29.87,10.0,SW,10.4,-,N/A,,Mostly Cloudy,220,2013-09-02 07:53:00
4:53 AM,79.0,75.0,88,29.87,10.0,SSW,9.2,-,N/A,,Mostly Cloudy,210,2013-09-02 08:53:00
5:53 AM,79.0,75.0,88,29.86,10.0,SSW,6.9,-,N/A,,Mostly Cloudy,210,2013-09-02 09:53:00
6:53 AM,79.0,75.0,88,29.88,10.0,SW,6.9,-,N/A,,Clear,220,2013-09-02 10:53:00
7:53 AM,79.0,75.9,90,29.89,10.0,SW,4.6,-,N/A,,Clear,220,2013-09-02 11:53:00
8:53 AM,82.9,75.9,79,29.90,10.0,SW,10.4,-,N/A,,Clear,230,2013-09-02 12:53:00
9:53 AM,86.0,75.0,70,29.91,10.0,SW,9.2,-,N/A,,Clear,230,2013-09-02 13:53:00
10:53 AM,88.0,75.9,67,29.91,10.0,WSW,10.4,16.1,N/A,,Scattered Clouds,250,2013-09-02 14:53:00
11:53 AM,89.1,73.9,61,29.90,10.0,WSW,13.8,-,N/A,,Mostly Cloudy,240,2013-09-02 15:53:00
12:53 PM,91.0,73.9,57,29.88,10.0,WSW,12.7,-,N/A,,Partly Cloudy,240,2013-09-02 16:53:00
1:53 PM,88.0,75.9,67,29.87,10.0,South,12.7,18.4,N/A,,Scattered Clouds,180,2013-09-02 17:53:00
2:53 PM,88.0,75.9,67,29.85,8.0,SSW,13.8,20.7,0.00,Rain,Light Rain,210,2013-09-02 18:53:00
3:53 PM,90.0,75.0,61,29.83,10.0,SSW,10.4,-,0.00,,Clear,210,2013-09-02 19:53:00
4:53 PM,90.0,75.9,63,29.82,10.0,SW,10.4,18.4,N/A,,Partly Cloudy,220,2013-09-02 20:53:00
5:53 PM,88.0,75.0,65,29.82,10.0,SSW,15.0,18.4,N/A,,Clear,210,2013-09-02 21:53:00
6:29 PM,84.2,75.2,74,29.82,10.0,SSW,10.4,-,N/A,Thunderstorm,Thunderstorm,200,2013-09-02 22:29:00
6:53 PM,82.9,75.9,79,29.83,10.0,SSW,10.4,-,N/A,Thunderstorm,Thunderstorm,210,2013-09-02 22:53:00
7:32 PM,80.6,75.2,84,29.85,7.0,WSW,10.4,-,0.00,Rain-Thunderstorm,Light Thunderstorms and Rain,240,2013-09-02 23:32:00
7:50 PM,78.8,75.2,89,29.85,2.0,SSW,8.1,19.6,0.05,Rain-Thunderstorm,Light Thunderstorms and Rain,210,2013-09-02 23:50:00
7:53 PM,79.0,75.9,90,29.86,3.0,SSW,6.9,-,0.05,Rain-Thunderstorm,Light Thunderstorms and Rain,200,2013-09-02 23:53:00
7:56 PM,78.8,75.2,89,29.85,7.0,SSW,6.9,-,0.00,Rain,Light Rain,200,2013-09-02 23:56:00
8:53 PM,79.0,77.0,94,29.86,8.0,SSW,6.9,-,0.00,,Clear,200,2013-09-03 00:53:00
9:53 PM,80.1,77.0,90,29.86,8.0,SSW,8.1,-,N/A,,Clear,200,2013-09-03 01:53:00
10:53 PM,80.1,75.9,87,29.88,9.0,SW,10.4,-,N/A,,Partly Cloudy,220,2013-09-03 02:53:00
11:53 PM,79.0,75.9,90,29.87,10.0,SSW,9.2,-,N/A,,Clear,210,2013-09-03 03:53:00